Regional Weather Roundup
Issued by NWS

Home | Current Version | Previous Version | Text Only | Print | Product List | Glossary On
Versions: 1 2 3 4 5 6 7 8 9 10 11 12 13 14 15 16 17 18 19 20 21 22 23 24 25 26 27 28 29 30 31 32 33 34 35 36 37 38 39 40 41 42 43 44 45 46 47 48 49 50
000
ASUS45 KABQ 172201
RWRNM
WEATHER ROUNDUP FOR NEW MEXICO
NATIONAL WEATHER SERVICE ALBUQUERQUE NM
300 PM MST WED DEC 17 2014

NOTE: "FAIR" MEANS FEW OR NO CLOUDS BELOW 12,000 FEET AGL WITH NO
       SIGNIFICANT WEATHER OR OBSTRUCTIONS TO VISION.

      THIS PRODUCT IS RELEASED AS TWO VERSIONS.  ONE VERSION NEAR
      THE TOP OF THE HOUR CONTAINING PRELIMINARY DATA FROM ALBUQUERQUE
      AND OTHER STATIONS.  A FINAL VERSION WITH ADDITIONAL DATA IS
      ISSUED ABOUT 10 MINUTES AFTER THE HOUR.

NMZ501-503-504-510>518-172300-
NORTHWEST PLATEAU/NORTHCENTRAL MOUNTAINS

CITY           SKY/WX    TMP DP  RH WIND       PRES   REMARKS
FARMINGTON     CLOUDY    41  28  60 W7        29.94S
SANTA FE       CLOUDY    34  31  88 SW12      29.95S WCI  25
TAOS           CLOUDY    30  27  86 N5        29.96R WCI  25

$$
NMZ402-403-502-505>509-172300-
WESTCENTRAL MOUNTAINS/SOUTHWEST MOUNTAINS

CITY           SKY/WX    TMP DP  RH WIND       PRES   REMARKS
GALLUP         CLOUDY    35  32  88 SW13      29.99S WCI  26
GRANTS         CLOUDY    39  34  81 W5        29.99R
SILVER CITY    MOSUNNY   46  34  61 W21G28    30.05S

$$
NMZ407-409-411-412-172300-
SOUTHERN DESERTS

CITY           SKY/WX    TMP DP  RH WIND       PRES   REMARKS
DEMING         CLOUDY    49  37  63 SW13      30.04R
HOLLOMAN AFB   PTSUNNY   56  33  41 SW23      29.99R
ALAMOGORDO     PTSUNNY   55  32  41 W16       30.01R
T OR C         CLOUDY    56  29  35 SW16G23   29.96S

$$
NMZ519>523-172300-
CENTRAL VALLEYS/CENTRAL HIGHLANDS

CITY           SKY/WX    TMP DP  RH WIND       PRES   REMARKS
ALBUQUERQUE    CLOUDY    43  34  70 S3        29.97S
DOUBLE EAGLE   CLOUDY    39  36  87 SE6       29.97S WCI  35
CLINES CORNERS PTSUNNY   37  30  75 W23G33    29.92R WCI  26
BELEN          MOCLDY    47  32  55 S3        29.97R
SOCORRO        NOT AVBL

$$
NMZ524>526-539-540-172300-
SOUTHCENTRAL MOUNTAINS

CITY           SKY/WX    TMP DP  RH WIND       PRES   REMARKS
RUIDOSO        PTSUNNY   41  30  65 W20G29    29.99R

$$
NMZ527>531-172300-
NORTHEAST HIGHLANDS/NORTHEAST PLAINS

CITY           SKY/WX    TMP DP  RH WIND       PRES   REMARKS
LAS VEGAS      CLOUDY    40  27  59 SW24G36   29.89R WCI  29
RATON          PTSUNNY   40  25  55 SE3       29.85F
CLAYTON        LGT RAIN  45  30  55 S13       29.87S

$$
NMZ532>537-172300-
EASTCENTRAL PLAINS

CITY           SKY/WX    TMP DP  RH WIND       PRES   REMARKS
TUCUMCARI      PTSUNNY   57  29  34 SW22G30   29.87S
CANNON AFB     NOT AVBL
CLOVIS AIRPORT PTSUNNY   54  36  50 SW12      29.91S

$$
NMZ028-029-538-172300-
SOUTHEAST PLAINS

CITY           SKY/WX    TMP DP  RH WIND       PRES   REMARKS
ROSWELL        SUNNY     62  29  28 W21       29.90F
ARTESIA        SUNNY     63  28  27 W21G32    29.93S
CARLSBAD       SUNNY     64  28  25 W20G29    29.94S
HOBBS          MOSUNNY   59  32  36 SW22G30   29.95S


$$



USA.gov is the U.S. government's official web portal to all federal, state and local government web resources and services.